Location: Newark
(40.0667°N, 18.0500°E)
Time: 00:46:58
(UTC+00:00)

N. Korean satellite - Pass Details

Date: 01 February 2020
Orbit: 456 x 505 km, 97.2° (Epoch: 21 February)

Event Time Altitude Azimuth Distance (km) Brightness Sun altitude
Rises 04:18:05 0° 17° (NNE) 2,567 10.4 -19.1°
Reaches altitude 10° 04:20:12 10° 22° (NNE) 1,689 9.5 -18.7°
Maximum altitude 04:23:45 51° 100° (E) 630 7.5 -18.1°
Drops below altitude 10° 04:27:19 10° 177° (S) 1,698 9.4 -17.4°
Sets 04:29:27 0° 182° (S) 2,582 10.3 -17.0°
